ANA706 RJCC-RJGG

Flight info

Callsign ANA706
Flight time N/A
Altitude 30000
Route DALBI Y120 TAPPI Y12 MBE Y121 SWING
Aircraft B738/M-SDE2E3FGHIRWXY/LB1

Departure

Time 2026-04-30 00:54
Airport New Chitose Airport (RJCC)

Arrival

Time N/A
Airport Chubu Centrair International Airport (RJGG)
Time Latitude Longitude Altitude Speed Heading
2026-04-30 00:47 42.78571 141.68208 67 ft 0 kts 305°
2026-04-30 00:48 42.78564 141.68223 58 ft 4 kts 304°
2026-04-30 00:48 42.78548 141.68254 62 ft 4 kts 305°
2026-04-30 00:48 42.78536 141.68279 58 ft 2 kts 306°
2026-04-30 00:49 42.78527 141.68293 58 ft 2 kts 326°
2026-04-30 00:49 42.78517 141.68301 58 ft 2 kts 340°
2026-04-30 00:49 42.78507 141.68305 64 ft 2 kts 351°
2026-04-30 00:49 42.78499 141.68306 65 ft 0 kts 356°
2026-04-30 00:51 42.78502 141.68309 64 ft 2 kts 24°
2026-04-30 00:52 42.78532 141.68342 57 ft 9 kts 39°
2026-04-30 00:52 42.78607 141.68386 63 ft 13 kts 16°
2026-04-30 00:52 42.78689 141.68411 60 ft 12 kts 10°
2026-04-30 00:52 42.78766 141.68434 61 ft 11 kts 30°
2026-04-30 00:53 42.78798 141.68526 63 ft 11 kts 82°
2026-04-30 00:53 42.78808 141.68627 67 ft 11 kts 82°
2026-04-30 00:53 42.78818 141.68726 67 ft 10 kts 84°
2026-04-30 00:53 42.78783 141.68814 65 ft 14 kts 154°
2026-04-30 00:54 42.78623 141.68850 66 ft 44 kts 173°
2026-04-30 00:54 42.78082 141.68944 66 ft 109 kts 172°
2026-04-30 00:54 42.77154 141.69104 124 ft 153 kts 173°
2026-04-30 00:54 42.76112 141.69358 756 ft 155 kts 168°
2026-04-30 00:55 42.74988 141.69671 1294 ft 168 kts 172°
2026-04-30 00:55 42.73821 141.69998 1985 ft 176 kts 169°
2026-04-30 00:55 42.71090 141.70730 2409 ft 219 kts 179°
2026-04-30 00:56 42.69541 141.70869 2667 ft 236 kts 179°
2026-04-30 00:56 42.67844 141.71052 3095 ft 251 kts 178°
2026-04-30 00:56 42.66084 141.71312 3758 ft 257 kts 176°
2026-04-30 00:56 42.64295 141.71628 4456 ft 262 kts 176°
2026-04-30 00:57 42.62471 141.71975 5125 ft 267 kts 175°
2026-04-30 00:57 42.60609 141.72340 5775 ft 274 kts 175°
2026-04-30 00:57 42.58714 141.72296 6347 ft 273 kts 200°
2026-04-30 00:57 42.57106 141.71062 7047 ft 264 kts 227°
2026-04-30 00:58 42.56009 141.69101 7795 ft 261 kts 242°
2026-04-30 00:58 42.55114 141.66943 8525 ft 264 kts 244°
2026-04-30 00:58 42.54240 141.64739 9275 ft 267 kts 245°
2026-04-30 00:58 42.53359 141.62501 10041 ft 271 kts 245°
2026-04-30 00:59 42.52451 141.60196 10447 ft 288 kts 245°
2026-04-30 00:59 42.51470 141.57708 10612 ft 311 kts 245°
2026-04-30 00:59 42.50415 141.55047 10945 ft 327 kts 245°
2026-04-30 00:59 42.49334 141.52337 11539 ft 334 kts 246°
2026-04-30 01:00 42.48215 141.49550 12240 ft 338 kts 246°
2026-04-30 01:00 42.47080 141.46727 12904 ft 344 kts 246°
2026-04-30 01:00 42.45921 141.43855 13579 ft 350 kts 247°
2026-04-30 01:00 42.44743 141.40941 14263 ft 355 kts 247°
2026-04-30 01:01 42.43554 141.38002 15005 ft 357 kts 248°
2026-04-30 01:01 42.42358 141.35049 15769 ft 358 kts 248°
2026-04-30 01:01 42.41157 141.32085 16505 ft 360 kts 248°
2026-04-30 01:01 42.39949 141.29102 17226 ft 363 kts 249°
2026-04-30 01:02 42.38730 141.26095 17937 ft 366 kts 249°
2026-04-30 01:02 42.37500 141.23059 18614 ft 369 kts 249°
2026-04-30 01:02 42.36259 141.19998 19128 ft 375 kts 249°
2026-04-30 01:02 42.35010 141.16927 19630 ft 380 kts 249°
2026-04-30 01:03 42.33727 141.13786 20235 ft 382 kts 249°
2026-04-30 01:03 42.32437 141.10631 20824 ft 385 kts 248°
2026-04-30 01:03 42.31133 141.07451 21377 ft 389 kts 248°
2026-04-30 01:03 42.29814 141.04235 21916 ft 393 kts 248°
2026-04-30 01:04 42.28485 141.00993 22462 ft 396 kts 248°
2026-04-30 01:04 42.27146 140.97724 23001 ft 399 kts 248°
2026-04-30 01:04 42.25796 140.94432 23494 ft 403 kts 248°
2026-04-30 01:04 42.24433 140.91104 23970 ft 406 kts 248°
2026-04-30 01:05 42.23063 140.87768 24472 ft 406 kts 248°
2026-04-30 01:05 42.21689 140.84437 25013 ft 406 kts 248°
2026-04-30 01:05 42.20315 140.81109 25517 ft 406 kts 248°
2026-04-30 01:05 42.18932 140.77776 25972 ft 408 kts 248°
2026-04-30 01:06 42.17540 140.74433 26441 ft 409 kts 248°
2026-04-30 01:06 42.16145 140.71082 26899 ft 410 kts 247°
2026-04-30 01:06 42.14751 140.67729 27383 ft 409 kts 247°
2026-04-30 01:06 42.13393 140.64466 28205 ft 400 kts 247°
2026-04-30 01:07 42.12049 140.61244 29068 ft 391 kts 247°
2026-04-30 01:07 42.10725 140.58074 29775 ft 386 kts 247°
2026-04-30 01:07 42.09377 140.54945 30149 ft 392 kts 242°
2026-04-30 01:07 42.07414 140.52249 30203 ft 415 kts 224°
2026-04-30 01:08 42.04871 140.50262 30153 ft 431 kts 209°
2026-04-30 01:08 42.02001 140.49030 30154 ft 434 kts 204°
2026-04-30 01:08 41.96199 140.46972 30169 ft 427 kts 202°
2026-04-30 01:09 41.90503 140.44953 30177 ft 421 kts 204°
2026-04-30 01:09 41.84815 140.42843 30188 ft 429 kts 204°
2026-04-30 01:10 41.79036 140.40674 30169 ft 432 kts 204°
2026-04-30 01:10 41.73291 140.38528 30174 ft 423 kts 204°
2026-04-30 01:11 41.67652 140.36418 30202 ft 425 kts 204°
2026-04-30 01:11 41.61936 140.34282 30201 ft 427 kts 204°
2026-04-30 01:12 41.56195 140.32157 30158 ft 429 kts 204°
2026-04-30 01:12 41.50497 140.30075 30183 ft 421 kts 204°
2026-04-30 01:13 41.44837 140.28000 30197 ft 422 kts 204°
2026-04-30 01:13 41.39162 140.25919 30205 ft 423 kts 204°
2026-04-30 01:14 41.33482 140.23835 30208 ft 424 kts 204°
2026-04-30 01:14 41.27780 140.21742 30206 ft 425 kts 204°
2026-04-30 01:15 41.22081 140.19653 30204 ft 425 kts 204°
2026-04-30 01:15 41.16415 140.17580 30204 ft 425 kts 204°
2026-04-30 01:16 41.10706 140.15531 30204 ft 424 kts 204°
2026-04-30 01:16 41.05000 140.13578 30195 ft 423 kts 204°
2026-04-30 01:17 40.99302 140.11635 30201 ft 421 kts 204°
2026-04-30 01:17 40.93640 140.09689 30200 ft 420 kts 205°
2026-04-30 01:18 40.87999 140.07747 30196 ft 418 kts 205°
2026-04-30 01:18 40.82385 140.05814 30197 ft 416 kts 206°
2026-04-30 01:19 40.76790 140.03893 30203 ft 415 kts 206°
2026-04-30 01:19 40.71205 140.01978 30170 ft 415 kts 206°
2026-04-30 01:20 40.65623 140.00067 30205 ft 413 kts 206°
2026-04-30 01:20 40.60097 139.98176 30221 ft 413 kts 206°
2026-04-30 01:21 40.54535 139.96274 30217 ft 413 kts 206°
2026-04-30 01:21 40.48965 139.94368 30187 ft 413 kts 206°
2026-04-30 01:22 40.43442 139.92497 30224 ft 409 kts 206°
2026-04-30 01:22 40.37919 139.90628 30234 ft 411 kts 206°
2026-04-30 01:23 40.33314 139.89068 30230 ft 411 kts 206°
2026-04-30 01:23 40.27771 139.87186 30213 ft 411 kts 206°
2026-04-30 01:24 40.22238 139.85310 30224 ft 410 kts 206°
2026-04-30 01:24 40.16716 139.83439 30240 ft 409 kts 206°
2026-04-30 01:25 40.11206 139.81572 30240 ft 409 kts 206°
2026-04-30 01:25 40.05710 139.79708 30236 ft 407 kts 206°
2026-04-30 01:26 40.00217 139.77859 30242 ft 407 kts 206°
2026-04-30 01:26 39.94729 139.76036 30243 ft 407 kts 205°
2026-04-30 01:27 39.89264 139.74220 30248 ft 409 kts 205°
2026-04-30 01:27 39.83744 139.72390 30238 ft 408 kts 205°
2026-04-30 01:28 39.78242 139.70572 30236 ft 407 kts 205°
2026-04-30 01:28 39.72752 139.68753 30241 ft 407 kts 205°
2026-04-30 01:29 39.67273 139.66936 30219 ft 406 kts 204°
2026-04-30 01:29 39.61798 139.65124 30229 ft 405 kts 205°
2026-04-30 01:30 39.56328 139.63317 30243 ft 406 kts 205°
2026-04-30 01:30 39.50839 139.61506 30241 ft 407 kts 205°
2026-04-30 01:31 39.45379 139.59706 30230 ft 407 kts 205°
2026-04-30 01:31 39.39872 139.57895 30234 ft 408 kts 205°
2026-04-30 01:32 39.34360 139.56086 30239 ft 409 kts 205°
2026-04-30 01:32 39.28842 139.54278 30236 ft 409 kts 205°
2026-04-30 01:33 39.23319 139.52472 30232 ft 409 kts 205°
2026-04-30 01:33 39.17800 139.50670 30234 ft 409 kts 205°
2026-04-30 01:34 39.12319 139.48884 30231 ft 408 kts 205°
2026-04-30 01:34 39.06824 139.47096 30218 ft 407 kts 206°
2026-04-30 01:35 39.01345 139.45316 30229 ft 405 kts 206°
2026-04-30 01:35 38.95874 139.43540 30232 ft 405 kts 206°
2026-04-30 01:36 38.90417 139.41772 30224 ft 403 kts 206°
2026-04-30 01:36 38.84992 139.40018 30217 ft 400 kts 206°
2026-04-30 01:37 38.79615 139.38283 30223 ft 397 kts 206°
2026-04-30 01:37 38.74308 139.36571 30223 ft 395 kts 206°
2026-04-30 01:38 38.68976 139.34851 30198 ft 395 kts 206°
2026-04-30 01:38 38.63651 139.33137 30216 ft 394 kts 205°
2026-04-30 01:39 38.58328 139.31427 30218 ft 395 kts 205°
2026-04-30 01:39 38.52993 139.29716 30217 ft 395 kts 205°
2026-04-30 01:40 38.47659 139.28008 30197 ft 395 kts 205°
2026-04-30 01:40 38.42318 139.26301 30213 ft 396 kts 205°
2026-04-30 01:41 38.36960 139.24590 30214 ft 397 kts 205°
2026-04-30 01:41 38.31632 139.22891 30219 ft 397 kts 204°
2026-04-30 01:42 38.26278 139.21185 30209 ft 396 kts 204°
2026-04-30 01:42 38.20928 139.19486 30205 ft 395 kts 204°
2026-04-30 01:43 38.15601 139.17794 30207 ft 394 kts 204°
2026-04-30 01:43 38.10279 139.16104 30194 ft 393 kts 204°
2026-04-30 01:44 38.04984 139.14421 30204 ft 392 kts 204°
2026-04-30 01:44 37.99693 139.12748 30200 ft 391 kts 204°
2026-04-30 01:45 37.94566 139.10726 30207 ft 377 kts 214°
2026-04-30 01:45 37.89992 139.07627 30211 ft 372 kts 217°
2026-04-30 01:46 37.85452 139.04521 30218 ft 373 kts 217°
2026-04-30 01:46 37.80869 139.01400 30209 ft 374 kts 217°
2026-04-30 01:47 37.76277 138.98283 30199 ft 375 kts 217°
2026-04-30 01:47 37.71683 138.95171 30201 ft 374 kts 217°
2026-04-30 01:48 37.67091 138.92064 30199 ft 374 kts 217°
2026-04-30 01:48 37.62498 138.88960 30196 ft 374 kts 217°
2026-04-30 01:49 37.57946 138.85887 30194 ft 373 kts 217°
2026-04-30 01:49 37.53374 138.82803 30193 ft 372 kts 217°
2026-04-30 01:50 37.48814 138.79726 30183 ft 372 kts 217°
2026-04-30 01:50 37.44253 138.76663 30185 ft 371 kts 217°
2026-04-30 01:51 37.39699 138.73608 30188 ft 371 kts 217°
2026-04-30 01:51 37.35135 138.70579 30181 ft 371 kts 217°
2026-04-30 01:52 37.30576 138.67534 30166 ft 371 kts 217°
2026-04-30 01:52 37.26018 138.64475 30193 ft 372 kts 217°
2026-04-30 01:53 37.21432 138.61410 30177 ft 374 kts 217°
2026-04-30 01:53 37.16871 138.58366 30176 ft 374 kts 217°
2026-04-30 01:54 37.12281 138.55311 30171 ft 374 kts 216°
2026-04-30 01:54 37.07674 138.52267 30189 ft 374 kts 216°
2026-04-30 01:55 37.03070 138.49231 30191 ft 373 kts 217°
2026-04-30 01:55 36.98476 138.46197 30166 ft 373 kts 216°
2026-04-30 01:56 36.93898 138.43165 30200 ft 373 kts 216°
2026-04-30 01:56 36.89305 138.40134 30197 ft 373 kts 216°
2026-04-30 01:57 36.84742 138.37123 30185 ft 373 kts 216°
2026-04-30 01:57 36.80151 138.34109 30174 ft 373 kts 215°
2026-04-30 01:58 36.75565 138.31109 30174 ft 372 kts 215°
2026-04-30 01:58 36.70994 138.28110 30200 ft 372 kts 216°
2026-04-30 01:59 36.64089 138.23564 30206 ft 376 kts 216°
2026-04-30 02:00 36.59450 138.20516 30202 ft 378 kts 216°
2026-04-30 02:00 36.54797 138.17466 30187 ft 378 kts 216°
2026-04-30 02:01 36.50148 138.14417 30219 ft 378 kts 216°
2026-04-30 02:01 36.45499 138.11384 30202 ft 375 kts 215°
2026-04-30 02:02 36.40852 138.08366 30198 ft 378 kts 215°
2026-04-30 02:02 36.36217 138.05378 30224 ft 378 kts 215°
2026-04-30 02:03 36.31546 138.02350 30193 ft 380 kts 215°
2026-04-30 02:03 36.26881 137.99320 30203 ft 378 kts 216°
2026-04-30 02:03 36.24587 137.97835 30143 ft 367 kts 216°
2026-04-30 02:04 36.22348 137.96386 29836 ft 357 kts 215°
2026-04-30 02:04 36.20159 137.94972 29416 ft 353 kts 215°
2026-04-30 02:04 36.18003 137.93582 29011 ft 348 kts 216°
2026-04-30 02:04 36.16031 137.92304 28617 ft 344 kts 217°
2026-04-30 02:05 36.14034 137.90753 28180 ft 335 kts 221°
2026-04-30 02:05 36.12136 137.89104 27773 ft 332 kts 222°
2026-04-30 02:05 36.10265 137.87455 27355 ft 329 kts 223°
2026-04-30 02:05 36.08409 137.85819 26916 ft 326 kts 222°
2026-04-30 02:06 36.06574 137.84204 26542 ft 323 kts 222°
2026-04-30 02:06 36.04741 137.82596 26114 ft 323 kts 222°
2026-04-30 02:06 36.02891 137.80975 25690 ft 332 kts 223°
2026-04-30 02:06 36.00963 137.79284 25253 ft 346 kts 222°
2026-04-30 02:07 35.98972 137.77544 24801 ft 351 kts 221°
2026-04-30 02:07 35.96977 137.75809 24343 ft 350 kts 221°
2026-04-30 02:07 35.95014 137.74105 23896 ft 349 kts 221°
2026-04-30 02:07 35.93045 137.72359 23424 ft 349 kts 221°
2026-04-30 02:08 35.91057 137.70648 22956 ft 347 kts 221°
2026-04-30 02:08 35.89083 137.68958 22529 ft 344 kts 221°
2026-04-30 02:08 35.87121 137.67275 22051 ft 343 kts 221°
2026-04-30 02:08 35.85172 137.65598 21607 ft 340 kts 220°
2026-04-30 02:09 35.83247 137.63937 21225 ft 337 kts 220°
2026-04-30 02:09 35.81328 137.62298 20758 ft 335 kts 219°
2026-04-30 02:09 35.79433 137.60688 20427 ft 326 kts 220°
2026-04-30 02:09 35.77593 137.59073 20017 ft 325 kts 220°
2026-04-30 02:10 35.75755 137.57467 19640 ft 323 kts 220°
2026-04-30 02:10 35.73917 137.55881 19236 ft 323 kts 220°
2026-04-30 02:10 35.72077 137.54296 18852 ft 322 kts 220°
2026-04-30 02:10 35.70245 137.52720 18442 ft 321 kts 220°
2026-04-30 02:11 35.68415 137.51144 18015 ft 320 kts 219°
2026-04-30 02:11 35.66592 137.49583 17618 ft 319 kts 219°
2026-04-30 02:11 35.64776 137.48027 17197 ft 318 kts 219°
2026-04-30 02:11 35.62964 137.46460 16810 ft 317 kts 219°
2026-04-30 02:12 35.61170 137.44905 16407 ft 314 kts 219°
2026-04-30 02:12 35.59387 137.43372 16049 ft 312 kts 218°
2026-04-30 02:12 35.57617 137.41856 15653 ft 309 kts 218°
2026-04-30 02:12 35.55862 137.40350 15302 ft 305 kts 218°
2026-04-30 02:13 35.54129 137.38868 14947 ft 303 kts 217°
2026-04-30 02:13 35.52398 137.37390 14552 ft 303 kts 218°
2026-04-30 02:13 35.50674 137.35913 14196 ft 301 kts 217°
2026-04-30 02:13 35.49534 137.34938 13942 ft 301 kts 217°
2026-04-30 02:14 35.47250 137.32976 13246 ft 305 kts 217°
2026-04-30 02:14 35.45516 137.31483 12847 ft 304 kts 216°
2026-04-30 02:14 35.43782 137.29996 12442 ft 303 kts 216°
2026-04-30 02:14 35.42053 137.28518 12058 ft 302 kts 216°
2026-04-30 02:15 35.40330 137.27047 11682 ft 302 kts 215°
2026-04-30 02:15 35.38611 137.25580 11283 ft 301 kts 215°
2026-04-30 02:15 35.37464 137.24594 10879 ft 306 kts 215°
2026-04-30 02:15 35.35720 137.23089 10469 ft 307 kts 215°
2026-04-30 02:16 35.34006 137.21607 10338 ft 297 kts 215°
2026-04-30 02:16 35.32344 137.20173 10191 ft 288 kts 214°
2026-04-30 02:16 35.30730 137.18778 10050 ft 280 kts 214°
2026-04-30 02:16 35.29161 137.17422 9820 ft 275 kts 214°
2026-04-30 02:17 35.27604 137.16079 9539 ft 272 kts 214°
2026-04-30 02:17 35.26063 137.14752 9262 ft 270 kts 214°
2026-04-30 02:17 35.24533 137.13438 8985 ft 268 kts 214°
2026-04-30 02:17 35.23032 137.12118 8722 ft 265 kts 220°
2026-04-30 02:18 35.21967 137.10320 8548 ft 259 kts 243°
2026-04-30 02:18 35.21334 137.08262 8281 ft 258 kts 250°
2026-04-30 02:18 35.20815 137.06174 8038 ft 256 kts 251°
2026-04-30 02:18 35.20312 137.04091 7772 ft 255 kts 251°
2026-04-30 02:19 35.19808 137.02022 7503 ft 254 kts 251°
2026-04-30 02:19 35.19299 136.99965 7250 ft 252 kts 251°
2026-04-30 02:19 35.18784 136.97919 6997 ft 251 kts 250°
2026-04-30 02:19 35.18266 136.95883 6731 ft 250 kts 251°
2026-04-30 02:20 35.17748 136.93859 6447 ft 249 kts 250°
2026-04-30 02:20 35.17229 136.91839 6165 ft 249 kts 250°
2026-04-30 02:20 35.16714 136.89817 5902 ft 248 kts 249°
2026-04-30 02:20 35.16204 136.87825 5672 ft 242 kts 249°
2026-04-30 02:21 35.15716 136.85911 5572 ft 230 kts 248°
2026-04-30 02:21 35.15245 136.84070 5484 ft 223 kts 248°
2026-04-30 02:21 35.14788 136.82292 5419 ft 222 kts 248°
2026-04-30 02:21 35.14319 136.80476 5325 ft 226 kts 248°
2026-04-30 02:22 35.13844 136.78637 5244 ft 227 kts 248°
2026-04-30 02:22 35.13366 136.76793 5070 ft 229 kts 246°
2026-04-30 02:22 35.12593 136.75141 4818 ft 222 kts 214°
2026-04-30 02:22 35.11211 136.74529 4581 ft 211 kts 174°
2026-04-30 02:23 35.09781 136.74824 4350 ft 207 kts 166°
2026-04-30 02:23 35.08401 136.75140 4105 ft 196 kts 165°
2026-04-30 02:23 35.07104 136.75442 3878 ft 184 kts 165°
2026-04-30 02:23 35.05887 136.75732 3674 ft 174 kts 164°
2026-04-30 02:24 35.04737 136.76007 3534 ft 161 kts 164°
2026-04-30 02:24 35.03683 136.76259 3493 ft 151 kts 163°
2026-04-30 02:24 35.02649 136.76508 3383 ft 152 kts 163°
2026-04-30 02:24 35.01646 136.76748 3176 ft 140 kts 163°
2026-04-30 02:25 35.00733 136.76968 2968 ft 129 kts 161°
2026-04-30 02:25 34.99855 136.77181 2804 ft 131 kts 162°
2026-04-30 02:25 34.98981 136.77426 2590 ft 127 kts 159°
2026-04-30 02:25 34.98113 136.77622 2420 ft 128 kts 162°
2026-04-30 02:26 34.97221 136.77821 2228 ft 131 kts 161°
2026-04-30 02:26 34.96341 136.78025 2024 ft 130 kts 161°
2026-04-30 02:26 34.95452 136.78237 1838 ft 131 kts 161°
2026-04-30 02:26 34.94551 136.78452 1645 ft 133 kts 162°
2026-04-30 02:27 34.93640 136.78669 1433 ft 134 kts 163°
2026-04-30 02:27 34.92722 136.78889 1234 ft 135 kts 163°
2026-04-30 02:27 34.91784 136.79116 1061 ft 143 kts 163°
2026-04-30 02:27 34.90766 136.79356 1545 ft 151 kts 165°
2026-04-30 02:28 34.89801 136.79641 2446 ft 127 kts 146°
2026-04-30 02:28 34.89457 136.80583 2594 ft 156 kts 78°